Location: Forli
(44.2227°N, 12.0407°E)
Time: 15:10:51
(UTC+01:00)

Tiangong - Pass Details

Date: 18 February 2026
Orbit: 382 x 391 km, 41.5° (Epoch: 5 March)

Event Time Altitude Azimuth Distance (km) Brightness Sun altitude
Rises 18:14:06 0° 266° (W) 2,258 4.3 -5.9°
Reaches altitude 10° 18:16:13 10° 261° (W) 1,402 2.6 -6.3°
Maximum altitude 18:19:17 49° 185° (S) 502 -1.4 -6.8°
Drops below altitude 10° 18:22:20 10° 109° (ESE) 1,396 0.2 -7.4°
Enters shadow 18:22:45 - 107° (ESE) 1,560 0.4 -7.4°
